Home   Weather   Leeds   Past weeks

Flag for United Kingdom Past Weather in Leeds, England, United Kingdom — Yesterday and Last 2 Weeks

Now
54 °F

Light rain. Passing clouds.


Feels Like: 51 °F
Forecast: 48 / 56 °F
Wind: 9 mph from Southwest

Location: Leeds And Bradford

Current Time: Dec 8, 2016 at 6:19:01 am

Latest Report: Dec 8, 2016 at 5:50 am


Visibility: 4 mi

Pressure: 30.09 "Hg

Humidity: 94%

Dew Point: 52 °F

Location of LeedsLocation

Past Weather in Leeds — Graph

°F

Leeds Temperature Yesterday

Maximum temperature yesterday: 55 °F (at 11:50 am)
Minimum temperature yesterday: 43 °F (at 12:20 am)
Average temperature yesterday: 52 °F

High & Low Weather Summary for the Past Weeks

 TemperatureHumidityPressure
High55 °F (Dec 7, 11:50 am)100% (Nov 23, 5:20 am)30.54 "Hg (Nov 23, 5:20 am)
Low27 °F (Nov 29, 5:50 am)61% (Nov 26, 5:20 pm)30.01 "Hg (Nov 23, 5:20 am)
Average40 °F91%30.30 "Hg
* Reported Nov 23 5:20 am — Dec 8 5:20 am, Leeds, Weather by CustomWeather, © 2016

Note: Actual official high and low records may vary slightly from our data, if they occured in-between our weather recording intervals... More about our weather records

Advertising

Leeds Weather History for the Previous 24 Hours

Scroll right to see more
 ConditionsComfort  
Time TempWeatherWind HumidityBarometerVisibility
5:20 am
Thu, Dec 8
54 °FLight rain. Passing clouds.7 mph94%30.09 "Hg4 mi
4:50 am54 °FPassing clouds.6 mph94%30.12 "HgN/A
3:50 am54 °FPassing clouds.8 mph94%30.12 "Hg5 mi
3:20 am54 °FPassing clouds.12 mph94%30.09 "Hg5 mi
2:20 am54 °FPassing clouds.14 mph94%30.12 "Hg5 mi
1:20 am54 °FPassing clouds.10 mph94%30.09 "HgN/A
12:50 am54 °FPassing clouds.10 mph94%30.09 "HgN/A
12:20 am54 °FPassing clouds.8 mph94%30.09 "HgN/A
11:50 pm
Wed, Dec 7
54 °FPassing clouds.10 mph94%30.09 "HgN/A
11:20 pm54 °FPassing clouds.12 mph94%30.09 "HgN/A
10:50 pm54 °FPassing clouds.13 mph94%30.09 "HgN/A
10:20 pm54 °FPassing clouds.13 mph94%30.09 "HgN/A
9:50 pm54 °FPassing clouds.10 mph94%30.09 "HgN/A
9:20 pm54 °FLight rain. Passing clouds.13 mph94%30.07 "HgN/A
8:50 pm54 °FPassing clouds.13 mph94%30.07 "HgN/A
8:20 pm54 °FPassing clouds.17 mph94%30.07 "HgN/A
7:50 pm55 °FPassing clouds.17 mph88%30.04 "HgN/A
7:20 pm54 °FPassing clouds.18 mph88%30.04 "HgN/A
6:50 pm54 °FClear.21 mph88%30.04 "Hg10 mi
6:20 pm55 °FClear.21 mph82%30.04 "Hg10 mi
5:50 pm55 °FClear.21 mph88%30.04 "Hg10 mi
5:20 pm55 °FPassing clouds.14 mph82%30.07 "HgN/A
4:50 pm55 °FPassing clouds.13 mph88%30.04 "HgN/A
4:20 pm54 °FPassing clouds.13 mph94%30.04 "HgN/A
3:50 pm55 °FPassing clouds.14 mph88%30.04 "HgN/A
3:20 pm55 °FScattered clouds.17 mph88%30.04 "HgN/A
1:50 pm55 °FScattered clouds.13 mph88%30.04 "HgN/A
1:20 pm55 °FScattered clouds.13 mph82%30.07 "HgN/A
12:50 pm55 °FScattered clouds.14 mph82%30.07 "HgN/A
12:20 pm55 °FScattered clouds.14 mph82%30.07 "HgN/A
11:50 am55 °FScattered clouds.12 mph82%30.07 "HgN/A
11:20 am54 °FScattered clouds.12 mph88%30.09 "HgN/A
10:50 am54 °FPassing clouds.12 mph88%30.09 "HgN/A
10:20 am54 °FPassing clouds.13 mph88%30.09 "HgN/A
9:50 am52 °FPassing clouds.13 mph88%30.09 "HgN/A
9:20 am52 °FPassing clouds.13 mph88%30.09 "HgN/A
8:50 am50 °FPassing clouds.16 mph94%30.09 "HgN/A
8:20 am52 °FPassing clouds.18 mph88%30.09 "HgN/A
7:50 am52 °FPassing clouds.16 mph88%30.09 "HgN/A
7:20 am50 °FPassing clouds.13 mph94%30.09 "HgN/A
6:50 am50 °FPassing clouds.12 mph88%30.09 "HgN/A
6:20 am50 °FPassing clouds.7 mph88%30.09 "HgN/A
Weather by CustomWeather, © 2016

See weather overviewHow to use our weather pages